| time (UTC) | temp C | wind direction | speed KPH | gust KPH | rain 1hr cm | rain 24hr cm | rain mn cm | humidity % | barometer mb |
| 20260507021120 | 12 | 92 | 3.2 | 6.4 | 0.05 | 0.43 | 0.43 | 99 | 1009.5 |
| 20260507020619 | 12 | 319 | 0.0 | 4.8 | 0.05 | 0.43 | 0.43 | 99 | 1009.4 |
| 20260507020115 | 12 | 282 | 3.2 | 3.2 | 0.05 | 0.43 | 0.43 | 99 | 1009.5 |
| 20260507015614 | 12 | 79 | 0.0 | 4.8 | 0.05 | 0.43 | 0.43 | 99 | 1009.4 |
| 20260507015111 | 12 | 78 | 4.8 | 8.0 | 0.05 | 0.43 | 0.43 | 99 | 1009.3 |
| 20260507014607 | 12 | 98 | 3.2 | 8.0 | 0.13 | 0.43 | 0.43 | 99 | 1009.3 |
| 20260507014103 | 12 | 249 | 1.6 | 6.4 | 0.18 | 0.41 | 0.41 | 99 | 1009.5 |
| 20260507013600 | 12 | 9 | 9.7 | 12.9 | 0.30 | 0.41 | 0.41 | 99 | 1009.3 |
| 20260507013057 | 13 | 53 | 4.8 | 14.5 | 0.13 | 0.38 | 0.38 | 99 | 1008.8 |
| 20260507012554 | 14 | 235 | 8.0 | 20.9 | 0.00 | 0.36 | 0.36 | 99 | 1008.6 |
| 20260507012049 | 15 | 48 | 0.0 | 4.8 | 0.00 | 0.36 | 0.36 | 99 | 1008.5 |
| 20260507011547 | 15 | 1 | 0.0 | 3.2 | 0.00 | 0.36 | 0.36 | 99 | 1008.5 |
| 20260507011038 | 15 | 100 | 1.6 | 3.2 | 0.00 | 0.36 | 0.36 | 99 | 1008.3 |
| 20260507010532 | 15 | 204 | 0.0 | 1.6 | 0.00 | 0.36 | 0.36 | 99 | 1008.2 |
| 20260507010029 | 15 | 220 | 1.6 | 1.6 | 0.00 | 0.36 | 0.36 | 99 | 1008.1 |
| 20260507005527 | 15 | 158 | 1.6 | 3.2 | 0.00 | 0.36 | 0.36 | 99 | 1008.0 |
| 20260507005023 | 15 | 49 | 0.0 | 3.2 | 0.00 | 0.36 | 0.36 | 99 | 1008.1 |
| 20260507004520 | 15 | 325 | 3.2 | 4.8 | 0.00 | 0.36 | 0.36 | 99 | 1007.9 |
| 20260507004018 | 15 | 170 | 1.6 | 3.2 | 0.00 | 0.36 | 0.36 | 99 | 1007.7 |
| 20260507003513 | 15 | 255 | 3.2 | 11.3 | 0.00 | 0.36 | 0.36 | 99 | 1007.8 |
| 20260507003008 | 15 | 305 | 8.0 | 8.0 | 0.00 | 0.36 | 0.36 | 99 | 1007.9 |
| 20260507002505 | 15 | 281 | 1.6 | 6.4 | 0.00 | 0.36 | 0.36 | 99 | 1007.8 |
| 20260507002001 | 15 | 114 | 1.6 | 3.2 | 0.00 | 0.36 | 0.36 | 99 | 1007.8 |
| 20260507001457 | 15 | 255 | 1.6 | 4.8 | 0.00 | 0.36 | 0.36 | 99 | 1007.8 |
| 20260507000955 | 15 | 249 | 0.0 | 3.2 | 0.00 | 0.36 | 0.36 | 99 | 1007.7 |
| 20260507000451 | 15 | 150 | 0.0 | 3.2 | 0.00 | 0.36 | 0.36 | 99 | 1007.7 |
| 20260506235946 | 15 | 264 | 0.0 | 4.8 | 0.00 | 0.36 | 0.36 | 99 | 1007.9 |
| 20260506235444 | 15 | 62 | 0.0 | 3.2 | 0.00 | 0.36 | 0.36 | 99 | 1007.8 |
| 20260506234940 | 15 | 333 | 4.8 | 6.4 | 0.00 | 0.36 | 0.36 | 99 | 1007.8 |
| 20260506234437 | 15 | 328 | 3.2 | 8.0 | 0.00 | 0.36 | 0.36 | 99 | 1007.8 |
| 20260506233935 | 15 | 228 | 0.0 | 4.8 | 0.00 | 0.36 | 0.36 | 99 | 1008.0 |
| 20260506233431 | 15 | 269 | 3.2 | 4.8 | 0.00 | 0.36 | 0.36 | 99 | 1007.8 |
| 20260506232928 | 15 | 230 | 3.2 | 4.8 | 0.00 | 0.36 | 0.36 | 99 | 1007.6 |
| 20260506232424 | 15 | 182 | 0.0 | 6.4 | 0.00 | 0.36 | 0.36 | 99 | 1007.7 |
| 20260506231920 | 15 | 219 | 0.0 | 3.2 | 0.00 | 0.36 | 0.36 | 99 | 1007.8 |
| 20260506231418 | 15 | 236 | 3.2 | 3.2 | 0.00 | 0.36 | 0.36 | 99 | 1007.7 |
| 20260506230915 | 15 | 272 | 1.6 | 4.8 | 0.00 | 0.36 | 0.36 | 99 | 1007.7 |
| 20260506230411 | 15 | 184 | 1.6 | 3.2 | 0.00 | 0.36 | 0.36 | 99 | 1007.4 |
| 20260506225908 | 15 | 305 | 0.0 | 3.2 | 0.00 | 0.36 | 0.36 | 99 | 1007.6 |
| 20260506225405 | 15 | 196 | 1.6 | 4.8 | 0.00 | 0.36 | 0.36 | 99 | 1007.5 |
| 20260506224902 | 15 | 247 | 0.0 | 4.8 | 0.00 | 0.36 | 0.36 | 99 | 1007.7 |
| 20260506224359 | 15 | 265 | 1.6 | 4.8 | 0.00 | 0.36 | 0.36 | 99 | 1007.6 |
| 20260506223855 | 15 | 328 | 0.0 | 9.7 | 0.00 | 0.36 | 0.36 | 99 | 1007.3 |
| 20260506223351 | 15 | 48 | 1.6 | 12.9 | 0.00 | 0.36 | 0.36 | 99 | 1007.6 |
| 20260506222848 | 15 | 295 | 3.2 | 8.0 | 0.00 | 0.36 | 0.36 | 99 | 1007.5 |
| 20260506222344 | 15 | 299 | 1.6 | 6.4 | 0.00 | 0.36 | 0.36 | 99 | 1007.4 |
| 20260506221842 | 15 | 210 | 1.6 | 4.8 | 0.00 | 0.36 | 0.36 | 99 | 1007.5 |
| 20260506221339 | 15 | 275 | 0.0 | 6.4 | 0.05 | 0.36 | 0.36 | 99 | 1007.4 |
| 20260506220836 | 15 | 258 | 1.6 | 6.4 | 0.05 | 0.36 | 0.36 | 99 | 1007.4 |
| 20260506220332 | 15 | 252 | 4.8 | 6.4 | 0.00 | 0.33 | 0.33 | 99 | 1007.4 |
| 20260506215829 | 15 | 254 | 1.6 | 4.8 | 0.00 | 0.33 | 0.33 | 99 | 1007.6 |
| 20260506215324 | 15 | 318 | 1.6 | 3.2 | 0.05 | 0.33 | 0.33 | 99 | 1007.4 |
| 20260506214820 | 15 | 315 | 3.2 | 4.8 | 0.05 | 0.33 | 0.33 | 99 | 1007.7 |
| 20260506214317 | 15 | 308 | 0.0 | 3.2 | 0.05 | 0.33 | 0.33 | 99 | 1007.6 |
| 20260506213816 | 15 | 332 | 3.2 | 4.8 | 0.23 | 0.33 | 0.33 | 99 | 1007.5 |
| 20260506213312 | 15 | 275 | 4.8 | 6.4 | 0.30 | 0.33 | 0.33 | 99 | 1007.4 |
| 20260506212810 | 15 | 269 | 0.0 | 6.4 | 0.18 | 0.28 | 0.28 | 99 | 1007.4 |
| 20260506212307 | 15 | 155 | 0.0 | 1.6 | 0.05 | 0.28 | 0.28 | 99 | 1007.4 |
| 20260506211801 | 15 | 347 | 0.0 | 4.8 | 0.00 | 0.25 | 0.25 | 99 | 1007.6 |
| 20260506211257 | 15 | 241 | 3.2 | 11.3 | 0.00 | 0.25 | 0.25 | 99 | 1007.5 |
| 20260506210754 | 15 | 297 | 4.8 | 8.0 | 0.05 | 0.25 | 0.25 | 99 | 1007.4 |
| 20260506210251 | 15 | 75 | 0.0 | 3.2 | 0.05 | 0.25 | 0.25 | 99 | 1007.4 |
| 20260506205748 | 15 | 249 | 1.6 | 9.7 | 0.00 | 0.25 | 0.25 | 99 | 1007.5 |
| 20260506205244 | 15 | 266 | 0.0 | 6.4 | 0.00 | 0.25 | 0.25 | 99 | 1007.5 |
| 20260506204741 | 15 | 349 | 1.6 | 6.4 | 0.00 | 0.25 | 0.25 | 99 | 1007.7 |
| 20260506204238 | 15 | 254 | 0.0 | 4.8 | 0.00 | 0.25 | 0.25 | 99 | 1007.9 |
| 20260506203736 | 15 | 306 | 3.2 | 8.0 | 0.00 | 0.25 | 0.25 | 99 | 1007.8 |
| 20260506203233 | 15 | 185 | 1.6 | 4.8 | 0.05 | 0.25 | 0.25 | 99 | 1007.7 |
| 20260506202731 | 15 | 303 | 3.2 | 11.3 | 0.05 | 0.23 | 0.23 | 99 | 1007.7 |
| 20260506202227 | 15 | 242 | 3.2 | 8.0 | 0.13 | 0.23 | 0.23 | 99 | 1007.8 |
| 20260506201724 | 15 | 278 | 3.2 | 8.0 | 0.18 | 0.23 | 0.23 | 99 | 1007.8 |
| 20260506201220 | 15 | 296 | 8.0 | 12.9 | 0.18 | 0.23 | 0.23 | 99 | 1007.9 |
| 20260506200717 | 15 | 252 | 1.6 | 6.4 | 0.13 | 0.20 | 0.20 | 99 | 1008.0 |
| 20260506200209 | 15 | 224 | 3.2 | 11.3 | 0.13 | 0.18 | 0.18 | 99 | 1007.9 |
| 20260506195705 | 15 | 277 | 3.2 | 6.4 | 0.13 | 0.18 | 0.18 | 99 | 1008.1 |
| 20260506195201 | 15 | 238 | 3.2 | 6.4 | 0.05 | 0.18 | 0.18 | 99 | 1008.2 |
| 20260506194659 | 15 | 330 | 3.2 | 16.1 | 0.00 | 0.15 | 0.15 | 98 | 1007.9 |
| 20260506194155 | 15 | 327 | 8.0 | 12.9 | 0.00 | 0.15 | 0.15 | 99 | 1008.2 |
| 20260506193653 | 15 | 271 | 3.2 | 6.4 | 0.00 | 0.15 | 0.15 | 99 | 1008.1 |
| 20260506193149 | 15 | 253 | 3.2 | 3.2 | 0.00 | 0.15 | 0.15 | 99 | 1008.2 |
| 20260506192646 | 15 | 274 | 0.0 | 8.0 | 0.00 | 0.15 | 0.15 | 99 | 1008.3 |
| 20260506192142 | 15 | 279 | 8.0 | 9.7 | 0.00 | 0.15 | 0.15 | 99 | 1008.2 |
| 20260506191639 | 15 | 240 | 3.2 | 8.0 | 0.00 | 0.15 | 0.15 | 99 | 1008.2 |
| 20260506191135 | 15 | 315 | 3.2 | 11.3 | 0.05 | 0.15 | 0.15 | 98 | 1008.6 |
| 20260506190633 | 15 | 249 | 3.2 | 11.3 | 0.05 | 0.15 | 0.15 | 98 | 1008.5 |
| 20260506190130 | 15 | 262 | 4.8 | 11.3 | 0.00 | 0.15 | 0.15 | 98 | 1008.5 |
| 20260506185627 | 15 | 251 | 6.4 | 19.3 | 0.00 | 0.15 | 0.15 | 98 | 1008.6 |
| 20260506185123 | 15 | 175 | 0.0 | 6.4 | 0.00 | 0.15 | 0.15 | 98 | 1008.6 |
| 20260506184620 | 15 | 289 | 4.8 | 14.5 | 0.00 | 0.15 | 0.15 | 98 | 1008.7 |
| 20260506184117 | 15 | 264 | 6.4 | 20.9 | 0.00 | 0.15 | 0.15 | 98 | 1008.6 |
| 20260506183614 | 15 | 265 | 4.8 | 14.5 | 0.00 | 0.15 | 0.15 | 98 | 1008.8 |
| 20260506183110 | 15 | 278 | 6.4 | 16.1 | 0.05 | 0.15 | 0.15 | 98 | 1009.0 |
| 20260506182608 | 15 | 266 | 8.0 | 17.7 | 0.05 | 0.15 | 0.15 | 98 | 1008.9 |
| 20260506182105 | 15 | 76 | 3.2 | 6.4 | 0.05 | 0.15 | 0.15 | 98 | 1008.9 |
| 20260506181603 | 15 | 238 | 4.8 | 6.4 | 0.05 | 0.15 | 0.15 | 98 | 1009.0 |
| 20260506181059 | 15 | 340 | 8.0 | 14.5 | 0.00 | 0.13 | 0.13 | 97 | 1008.9 |
| 20260506180556 | 15 | 296 | 6.4 | 17.7 | 0.05 | 0.13 | 0.13 | 97 | 1008.7 |
| 20260506180053 | 15 | 285 | 9.7 | 16.1 | 0.05 | 0.13 | 0.13 | 97 | 1008.6 |
| 20260506175549 | 15 | 59 | 0.0 | 11.3 | 0.05 | 0.13 | 0.13 | 97 | 1008.8 |
| 20260506175045 | 15 | 269 | 3.2 | 11.3 | 0.13 | 0.13 | 0.13 | 97 | 1009.0 |
| 20260506174544 | 15 | 275 | 1.6 | 9.7 | 0.05 | 0.10 | 0.10 | 97 | 1008.6 |
| 20260506174039 | 16 | 324 | 4.8 | 8.0 | 0.13 | 0.10 | 0.10 | 96 | 1008.8 |
| 20260506173538 | 16 | 312 | 6.4 | 16.1 | 0.18 | 0.10 | 0.10 | 95 | 1008.9 |
| 20260506173034 | 16 | 287 | 3.2 | 17.7 | 0.18 | 0.08 | 0.08 | 95 | 1009.1 |
| 20260506172532 | 16 | 187 | 0.0 | 12.9 | 0.18 | 0.05 | 0.05 | 94 | 1009.2 |
| 20260506172028 | 16 | 275 | 3.2 | 12.9 | 0.18 | 0.05 | 0.05 | 93 | 1009.4 |
| 20260506171525 | 16 | 284 | 1.6 | 8.0 | 0.13 | 0.03 | 0.03 | 92 | 1009.5 |
| 20260506171023 | 16 | 300 | 6.4 | 14.5 | 0.13 | 0.03 | 0.03 | 90 | 1009.7 |
| 20260506170520 | 17 | 286 | 4.8 | 9.7 | 0.05 | 0.00 | 0.00 | 89 | 1009.8 |
| 20260506170012 | 17 | 226 | 9.7 | 12.9 | 0.00 | 0.00 | 0.00 | 86 | 1010.0 |
| 20260506165510 | 17 | 298 | 6.4 | 12.9 | 0.00 | 0.00 | 0.00 | 84 | 1009.9 |
| 20260506165006 | 18 | 315 | 1.6 | 16.1 | 0.00 | 0.00 | 0.00 | 84 | 1009.8 |
| 20260506164503 | 18 | 265 | 4.8 | 14.5 | 0.00 | 0.00 | 0.00 | 83 | 1009.6 |
| 20260506164000 | 18 | 285 | 6.4 | 11.3 | 0.00 | 0.00 | 0.00 | 82 | 1010.0 |
| 20260506163454 | 18 | 265 | 6.4 | 14.5 | 0.00 | 0.00 | 0.00 | 81 | 1009.9 |
| 20260506162949 | 18 | 320 | 4.8 | 14.5 | 0.00 | 0.00 | 0.00 | 81 | 1009.8 |
| 20260506162447 | 19 | 299 | 8.0 | 20.9 | 0.00 | 0.00 | 0.00 | 78 | 1009.7 |
| 20260506161939 | 19 | 287 | 3.2 | 12.9 | 0.00 | 0.00 | 0.00 | 79 | 1009.8 |
| 20260506161437 | 20 | 307 | 9.7 | 20.9 | 0.00 | 0.00 | 0.00 | 77 | 1009.5 |
| 20260506160929 | 19 | 197 | 0.0 | 17.7 | 0.00 | 0.00 | 0.00 | 77 | 1009.7 |
| 20260506160426 | 20 | 257 | 16.1 | 20.9 | 0.00 | 0.00 | 0.00 | 76 | 1009.8 |
| 20260506155923 | 20 | 280 | 9.7 | 22.5 | 0.00 | 0.00 | 0.00 | 75 | 1009.9 |
| 20260506155420 | 20 | 295 | 4.8 | 22.5 | 0.00 | 0.00 | 0.00 | 75 | 1009.9 |
| 20260506153542 | 20 | 317 | 17.7 | 17.7 | 0.00 | 0.00 | 0.00 | 75 | 1010.3 |
| 20260506153040 | 20 | 289 | 14.5 | 17.7 | 0.00 | 0.00 | 0.00 | 75 | 1010.1 |
| 20260506152537 | 20 | 263 | 9.7 | 19.3 | 0.00 | 0.00 | 0.00 | 75 | 1010.2 |
| 20260506152035 | 20 | 339 | 4.8 | 17.7 | 0.00 | 0.00 | 0.00 | 75 | 1010.2 |
| 20260506151532 | 20 | 295 | 11.3 | 14.5 | 0.00 | 0.00 | 0.00 | 76 | 1010.3 |
| 20260506151024 | 19 | 282 | 9.7 | 16.1 | 0.00 | 0.00 | 0.00 | 76 | 1010.0 |
| 20260506150520 | 20 | 299 | 12.9 | 16.1 | 0.00 | 0.00 | 0.00 | 75 | 1010.5 |
| 20260506150017 | 20 | 310 | 4.8 | 20.9 | 0.00 | 0.00 | 0.00 | 75 | 1010.3 |
| 20260506145514 | 20 | 268 | 3.2 | 14.5 | 0.00 | 0.00 | 0.00 | 75 | 1010.1 |
| 20260506145011 | 19 | 303 | 1.6 | 14.5 | 0.00 | 0.00 | 0.00 | 77 | 1010.3 |
| 20260506144508 | 19 | 84 | 1.6 | 19.3 | 0.00 | 0.00 | 0.00 | 77 | 1010.2 |
| 20260506144005 | 19 | 255 | 6.4 | 14.5 | 0.00 | 0.00 | 0.00 | 77 | 1010.3 |
| 20260506143503 | 19 | 264 | 8.0 | 17.7 | 0.00 | 0.00 | 0.00 | 77 | 1010.5 |
| 20260506143001 | 19 | 282 | 8.0 | 20.9 | 0.00 | 0.00 | 0.00 | 77 | 1010.6 |
| 20260506142458 | 19 | 285 | 1.6 | 14.5 | 0.00 | 0.00 | 0.00 | 77 | 1010.5 |
| 20260506141956 | 19 | 305 | 3.2 | 6.4 | 0.00 | 0.00 | 0.00 | 79 | 1010.5 |
| 20260506141454 | 19 | 228 | 3.2 | 14.5 | 0.00 | 0.00 | 0.00 | 77 | 1010.5 |
| 20260506140952 | 20 | 302 | 1.6 | 6.4 | 0.00 | 0.00 | 0.00 | 76 | 1010.3 |
| 20260506140449 | 18 | 11 | 1.6 | 14.5 | 0.00 | 0.00 | 0.00 | 79 | 1010.2 |
| 20260506135945 | 18 | 263 | 3.2 | 9.7 | 0.00 | 0.00 | 0.00 | 80 | 1010.3 |
| 20260506135443 | 17 | 2 | 1.6 | 16.1 | 0.00 | 0.00 | 0.00 | 83 | 1010.5 |
| 20260506134938 | 18 | 353 | 3.2 | 14.5 | 0.00 | 0.00 | 0.00 | 83 | 1010.6 |
| 20260506134435 | 17 | 255 | 6.4 | 11.3 | 0.00 | 0.00 | 0.00 | 83 | 1010.5 |
| 20260506133932 | 17 | 254 | 3.2 | 12.9 | 0.00 | 0.00 | 0.00 | 84 | 1010.3 |
| 20260506133429 | 17 | 177 | 0.0 | 4.8 | 0.00 | 0.00 | 0.00 | 85 | 1010.4 |
| 20260506132926 | 17 | 294 | 6.4 | 16.1 | 0.00 | 0.00 | 0.00 | 84 | 1010.4 |
| 20260506132423 | 17 | 315 | 3.2 | 9.7 | 0.00 | 0.00 | 0.00 | 85 | 1010.3 |
| 20260506131920 | 17 | 249 | 3.2 | 8.0 | 0.00 | 0.00 | 0.00 | 85 | 1010.4 |
| 20260506131416 | 17 | 346 | 0.0 | 9.7 | 0.00 | 0.00 | 0.00 | 86 | 1010.5 |
| 20260506130914 | 16 | 198 | 3.2 | 9.7 | 0.00 | 0.00 | 0.00 | 86 | 1010.4 |
| 20260506130410 | 16 | 231 | 1.6 | 4.8 | 0.00 | 0.00 | 0.00 | 87 | 1010.5 |
| 20260506125908 | 16 | 224 | 1.6 | 8.0 | 0.00 | 0.00 | 0.00 | 88 | 1010.8 |
| 20260506125406 | 16 | 303 | 1.6 | 6.4 | 0.00 | 0.00 | 0.00 | 88 | 1010.7 |
| 20260506124904 | 16 | 283 | 6.4 | 11.3 | 0.00 | 0.00 | 0.00 | 88 | 1010.6 |
| 20260506124401 | 16 | 312 | 9.7 | 14.5 | 0.00 | 0.00 | 0.00 | 88 | 1010.8 |
| 20260506123859 | 16 | 273 | 4.8 | 8.0 | 0.00 | 0.00 | 0.00 | 88 | 1011.0 |
| 20260506123357 | 16 | 257 | 4.8 | 8.0 | 0.00 | 0.00 | 0.00 | 88 | 1011.2 |
| 20260506122854 | 16 | 295 | 6.4 | 14.5 | 0.00 | 0.00 | 0.00 | 88 | 1011.3 |
| 20260506122350 | 16 | 35 | 4.8 | 8.0 | 0.00 | 0.00 | 0.00 | 89 | 1011.2 |
| 20260506121849 | 16 | 37 | 4.8 | 12.9 | 0.00 | 0.00 | 0.00 | 89 | 1011.2 |
| 20260506121346 | 15 | 273 | 8.0 | 11.3 | 0.00 | 0.00 | 0.00 | 89 | 1011.0 |
| 20260506120843 | 16 | 352 | 16.1 | 24.1 | 0.00 | 0.00 | 0.00 | 89 | 1011.2 |
| 20260506120340 | 15 | 296 | 3.2 | 9.7 | 0.00 | 0.00 | 0.00 | 90 | 1011.3 |
| 20260506115837 | 15 | 298 | 3.2 | 6.4 | 0.00 | 0.00 | 0.00 | 91 | 1011.0 |
| 20260506115336 | 15 | 172 | 1.6 | 8.0 | 0.00 | 0.00 | 0.00 | 91 | 1011.2 |
| 20260506114834 | 15 | 105 | 1.6 | 9.7 | 0.00 | 0.00 | 0.00 | 90 | 1011.0 |
| 20260506114331 | 15 | 265 | 1.6 | 14.5 | 0.00 | 0.00 | 0.00 | 91 | 1011.0 |
| 20260506113830 | 15 | 243 | 3.2 | 8.0 | 0.00 | 0.00 | 0.00 | 92 | 1011.0 |
| 20260506113326 | 15 | 237 | 1.6 | 12.9 | 0.00 | 0.00 | 0.00 | 92 | 1011.3 |
| 20260506112823 | 14 | 312 | 0.0 | 1.6 | 0.00 | 0.00 | 0.00 | 93 | 1011.3 |
| 20260506112320 | 14 | 29 | 0.0 | 4.8 | 0.00 | 0.00 | 0.00 | 93 | 1011.0 |
| 20260506111818 | 14 | 156 | 0.0 | 3.2 | 0.00 | 0.00 | 0.00 | 94 | 1011.2 |
| 20260506111316 | 13 | 85 | 3.2 | 4.8 | 0.00 | 0.00 | 0.00 | 95 | 1011.0 |
| 20260506110813 | 13 | 98 | 3.2 | 8.0 | 0.00 | 0.00 | 0.00 | 97 | 1011.2 |
| 20260506110310 | 13 | 238 | 3.2 | 3.2 | 0.00 | 0.00 | 0.00 | 97 | 1011.4 |
| 20260506105806 | 13 | 51 | 4.8 | 6.4 | 0.00 | 0.00 | 0.00 | 98 | 1011.2 |
| 20260506105305 | 12 | 214 | 0.0 | 3.2 | 0.00 | 0.00 | 0.00 | 98 | 1011.2 |
| 20260506104801 | 12 | 113 | 0.0 | 3.2 | 0.00 | 0.00 | 0.00 | 98 | 1011.4 |
| 20260506104258 | 12 | 150 | 0.0 | 3.2 | 0.00 | 0.00 | 0.00 | 98 | 1011.2 |
| 20260506103756 | 12 | 125 | 0.0 | 3.2 | 0.00 | 0.00 | 0.00 | 98 | 1011.0 |
| 20260506103253 | 12 | 146 | 3.2 | 4.8 | 0.00 | 0.00 | 0.00 | 98 | 1011.3 |
| 20260506102750 | 12 | 341 | 1.6 | 3.2 | 0.00 | 0.00 | 0.00 | 98 | 1011.4 |
| 20260506102248 | 12 | 155 | 0.0 | 3.2 | 0.00 | 0.00 | 0.00 | 98 | 1011.3 |
| 20260506101745 | 12 | 137 | 0.0 | 1.6 | 0.00 | 0.00 | 0.00 | 98 | 1011.4 |
| 20260506101241 | 12 | 132 | 0.0 | 3.2 | 0.00 | 0.00 | 0.00 | 98 | 1011.0 |
| 20260506100740 | 12 | 105 | 0.0 | 3.2 | 0.00 | 0.00 | 0.00 | 98 | 1011.0 |
| 20260506100237 | 12 | 73 | 0.0 | 3.2 | 0.00 | 0.00 | 0.00 | 97 | 1010.9 |
| 20260506095736 | 12 | 111 | 1.6 | 4.8 | 0.00 | 0.00 | 0.00 | 97 | 1011.0 |
| 20260506095232 | 12 | 150 | 3.2 | 3.2 | 0.00 | 0.00 | 0.00 | 97 | 1011.2 |
| 20260506094729 | 12 | 185 | 1.6 | 4.8 | 0.00 | 0.00 | 0.00 | 97 | 1011.2 |
| 20260506094227 | 12 | 146 | 4.8 | 4.8 | 0.00 | 0.00 | 0.00 | 97 | 1010.8 |
| 20260506093726 | 12 | 144 | 0.0 | 1.6 | 0.00 | 0.00 | 0.00 | 97 | 1011.0 |
| 20260506093222 | 12 | 138 | 3.2 | 3.2 | 0.00 | 0.00 | 0.00 | 96 | 1010.9 |
| 20260506092720 | 12 | 101 | 0.0 | 4.8 | 0.00 | 0.00 | 0.00 | 96 | 1011.0 |
| 20260506092218 | 12 | 154 | 3.2 | 4.8 | 0.00 | 0.00 | 0.00 | 96 | 1010.8 |
| 20260506091715 | 12 | 115 | 1.6 | 3.2 | 0.00 | 0.00 | 0.00 | 96 | 1010.8 |
| 20260506091212 | 12 | 145 | 1.6 | 3.2 | 0.00 | 0.00 | 0.00 | 96 | 1010.9 |
| 20260506090710 | 12 | 194 | 1.6 | 4.8 | 0.00 | 0.00 | 0.00 | 95 | 1010.9 |
| 20260506090206 | 12 | 149 | 0.0 | 4.8 | 0.00 | 0.00 | 0.00 | 95 | 1010.9 |
| 20260506085704 | 12 | 125 | 0.0 | 4.8 | 0.00 | 0.00 | 0.00 | 95 | 1011.2 |
| 20260506085159 | 12 | 163 | 0.0 | 4.8 | 0.00 | 0.00 | 0.00 | 95 | 1010.9 |
| 20260506084656 | 13 | 121 | 0.0 | 4.8 | 0.00 | 0.00 | 0.00 | 95 | 1011.0 |
| 20260506084153 | 13 | 132 | 3.2 | 4.8 | 0.00 | 0.00 | 0.00 | 94 | 1010.8 |
| 20260506083650 | 13 | 137 | 0.0 | 3.2 | 0.00 | 0.00 | 0.00 | 94 | 1010.8 |
| 20260506083148 | 13 | 161 | 1.6 | 6.4 | 0.00 | 0.00 | 0.00 | 94 | 1011.0 |
| 20260506082644 | 13 | 117 | 0.0 | 3.2 | 0.00 | 0.00 | 0.00 | 93 | 1010.9 |
| 20260506082139 | 13 | 113 | 0.0 | 4.8 | 0.00 | 0.00 | 0.00 | 93 | 1011.2 |
| 20260506081638 | 13 | 148 | 1.6 | 3.2 | 0.00 | 0.00 | 0.00 | 93 | 1011.3 |
| 20260506081135 | 13 | 158 | 1.6 | 8.0 | 0.00 | 0.00 | 0.00 | 93 | 1010.9 |
| 20260506080632 | 13 | 100 | 0.0 | 8.0 | 0.00 | 0.00 | 0.00 | 93 | 1011.0 |
| 20260506080129 | 13 | 189 | 1.6 | 3.2 | 0.00 | 0.00 | 0.00 | 93 | 1010.9 |
| 20260506073113 | 13 | 133 | 3.2 | 3.2 | 0.00 | 0.00 | 0.00 | 92 | 1011.2 |
| 20260506072609 | 13 | 116 | 3.2 | 4.8 | 0.00 | 0.00 | 0.00 | 91 | 1010.9 |
| 20260506072108 | 13 | 166 | 0.0 | 3.2 | 0.00 | 0.00 | 0.00 | 90 | 1011.0 |
| 20260506071605 | 13 | 152 | 3.2 | 4.8 | 0.00 | 0.00 | 0.00 | 90 | 1011.0 |
| 20260506071102 | 13 | 106 | 1.6 | 4.8 | 0.00 | 0.00 | 0.00 | 90 | 1011.2 |
| 20260506070559 | 13 | 146 | 3.2 | 3.2 | 0.00 | 0.00 | 0.00 | 89 | 1011.0 |
| 20260506062033 | 16 | 140 | 1.6 | 3.2 | 0.00 | 0.00 | 0.00 | 81 | 1010.8 |
| 20260506061529 | 16 | 309 | 1.6 | 9.7 | 0.00 | 0.00 | 0.00 | 80 | 1010.9 |
| 20260506061027 | 16 | 318 | 4.8 | 8.0 | 0.00 | 0.00 | 0.00 | 79 | 1010.8 |
| 20260506060526 | 16 | 30 | 0.0 | 4.8 | 0.00 | 0.00 | 0.00 | 80 | 1010.8 |
| 20260506050954 | 17 | 280 | 0.0 | 3.2 | 0.00 | 0.00 | 0.00 | 74 | 1011.2 |
| 20260506050452 | 17 | 252 | 3.2 | 14.5 | 0.00 | 0.00 | 0.00 | 74 | 1011.2 |
| 20260506044942 | 17 | 258 | 0.0 | 4.8 | 0.00 | 0.00 | 0.00 | 75 | 1011.0 |
| 20260506044441 | 17 | 225 | 3.2 | 6.4 | 0.00 | 0.00 | 0.00 | 75 | 1011.2 |
| 20260506043937 | 17 | 264 | 3.2 | 9.7 | 0.00 | 0.00 | 0.00 | 74 | 1011.2 |
| 20260506043434 | 17 | 236 | 12.9 | 14.5 | 0.00 | 0.00 | 0.00 | 74 | 1011.4 |
| 20260506042932 | 17 | 230 | 4.8 | 11.3 | 0.00 | 0.00 | 0.00 | 74 | 1010.9 |
| 20260506042431 | 16 | 150 | 0.0 | 3.2 | 0.00 | 0.00 | 0.00 | 77 | 1011.3 |
| 20260506041929 | 16 | 263 | 6.4 | 9.7 | 0.00 | 0.00 | 0.00 | 78 | 1011.2 |
| 20260506041427 | 16 | 118 | 0.0 | 3.2 | 0.00 | 0.00 | 0.00 | 78 | 1011.5 |
| 20260506040924 | 16 | 175 | 0.0 | 3.2 | 0.00 | 0.00 | 0.00 | 78 | 1011.3 |
| 20260506040421 | 16 | 91 | 0.0 | 4.8 | 0.00 | 0.00 | 0.00 | 77 | 1011.2 |
| 20260506035917 | 16 | 64 | 1.6 | 4.8 | 0.00 | 0.00 | 0.00 | 77 | 1011.3 |
| 20260506035415 | 16 | 122 | 0.0 | 3.2 | 0.00 | 0.00 | 0.00 | 77 | 1011.2 |
| 20260506034911 | 17 | 284 | 3.2 | 9.7 | 0.00 | 0.00 | 0.00 | 74 | 1011.3 |
| 20260506034408 | 16 | 274 | 4.8 | 4.8 | 0.00 | 0.00 | 0.00 | 76 | 1011.3 |
| 20260506033905 | 17 | 226 | 3.2 | 6.4 | 0.00 | 0.00 | 0.00 | 76 | 1011.4 |
| 20260506033403 | 17 | 162 | 0.0 | 4.8 | 0.00 | 0.00 | 0.00 | 74 | 1011.4 |
| 20260506032859 | 17 | 321 | 3.2 | 4.8 | 0.00 | 0.00 | 0.00 | 75 | 1011.4 |
| 20260506032356 | 16 | 150 | 0.0 | 6.4 | 0.00 | 0.00 | 0.00 | 75 | 1011.2 |
| 20260506031853 | 16 | 79 | 0.0 | 1.6 | 0.00 | 0.00 | 0.00 | 75 | 1011.2 |
| 20260506031350 | 17 | 254 | 3.2 | 9.7 | 0.00 | 0.00 | 0.00 | 75 | 1011.4 |
| 20260506030848 | 17 | 251 | 1.6 | 8.0 | 0.00 | 0.00 | 0.00 | 74 | 1011.3 |
| 20260506030346 | 17 | 248 | 1.6 | 6.4 | 0.00 | 0.00 | 0.00 | 73 | 1011.5 |
| 20260506025842 | 17 | 230 | 6.4 | 14.5 | 0.00 | 0.00 | 0.00 | 73 | 1011.3 |
| 20260506025339 | 17 | 307 | 1.6 | 6.4 | 0.00 | 0.00 | 0.00 | 73 | 1011.3 |
| 20260506024836 | 17 | 317 | 0.0 | 8.0 | 0.00 | 0.00 | 0.00 | 72 | 1011.2 |
| 20260506024333 | 17 | 358 | 0.0 | 8.0 | 0.00 | 0.00 | 0.00 | 73 | 1011.0 |
| 20260506023829 | 17 | 213 | 6.4 | 11.3 | 0.00 | 0.00 | 0.00 | 73 | 1011.3 |
| 20260506023326 | 17 | 178 | 0.0 | 3.2 | 0.00 | 0.00 | 0.00 | 74 | 1010.8 |
| 20260506022822 | 17 | 262 | 0.0 | 4.8 | 0.00 | 0.00 | 0.00 | 72 | 1011.0 |
| 20260506022320 | 16 | 221 | 0.0 | 6.4 | 0.00 | 0.00 | 0.00 | 74 | 1011.2 |
| 20260506021819 | 17 | 137 | 0.0 | 1.6 | 0.00 | 0.00 | 0.00 | 73 | 1011.0 |